Overview Statistics Trail Chart Weather Telemetry Raw packets
 

This is the latest recevied weather packets stored in our database for station/object WX0ABE-13. If no packets are shown the sender has not sent any weather packets the latest 10 day(s).

<< 70 71 72 73 74 75 76 >>
Time Temp. Humidity Pressure Rain* Wind** Luminosity Snow
1787846278 25.56° C 53% 1022.6 hPa 0 mm - 452 W/m² -
1787845980 25° C 59% 1022.6 hPa 0 mm - 437 W/m² -
1787845670 25° C 58% 1022.4 hPa 0 mm - 424 W/m² -
1787845370 25° C 57% 1022.4 hPa 0 mm - 409 W/m² -
1787845066 25.56° C 57% 1022.7 hPa 0 mm - 394 W/m² -
1787844761 25° C 60% 1022.6 hPa 0 mm - 382 W/m² -
1787844460 23.89° C 59% 1022.8 hPa 0 mm - 369 W/m² -
1787844155 23.33° C 60% 1022.7 hPa 0 mm - 354 W/m² -
1787843855 23.89° C 61% 1022.8 hPa 0 mm - 292 W/m² -
1787843550 23.89° C 62% 1022.8 hPa 0 mm - 150 W/m² -
1787843247 23.33° C 64% 1022.8 hPa 0 mm - 101 W/m² -
1787842941 22.78° C 66% 1022.7 hPa 0 mm - 100 W/m² -
1787842641 22.22° C 67% 1022.6 hPa 0 mm - 219 W/m² -
1787842337 22.22° C 70% 1022.7 hPa 0 mm - 99 W/m² -
1787842036 21.67° C 72% 1022.8 hPa 0 mm - 213 W/m² -
1787841732 21.11° C 73% 1022.7 hPa 0 mm - 113 W/m² -
1787841428 20.56° C 74% 1022.8 hPa 0 mm - 148 W/m² -
1787841127 20° C 75% 1022.8 hPa 0 mm - 161 W/m² -
1787840824 19.44° C 77% 1022.9 hPa 0 mm - 53 W/m² -
1787840517 19.44° C 78% 1022.9 hPa 0 mm - 51 W/m² -
1787840213 18.89° C 79% 1022.8 hPa 0 mm - 54 W/m² -
1787839912 18.89° C 80% 1022.9 hPa 0 mm - 79 W/m² -
1787839608 18.33° C 81% 1022.9 hPa 0 mm - 40 W/m² -
1787839308 18.33° C 81% 1022.9 hPa 0 mm - 38 W/m² -
1787839007 17.78° C 82% 1022.7 hPa 0 mm - 38 W/m² -

* Rain latest hour (hover to see other rain measurements)
** Current wind speed in m/s (hover to see current wind gust speed)